Stanton, MN

6:51 PM CST on February 24, 2018 (GMT -0600)
Stanton

Weather History for KSYN - November, 2013

Change the Weather History Date:

Friday, November 22, 2013

  Actual Average (KLVN) Record (KLVN)
Temperature  
Mean Temperature 21 °F -  
Max Temperature 31 °F 37 °F 59 °F (1998)
Min Temperature 11 °F 21 °F 2 °F (1981)
Degree Days  
Heating Degree Days 44    
Moisture  
Dew Point 13 °F    
Average Humidity 69    
Maximum Humidity 86    
Minimum Humidity 41    
Precipitation  
Precipitation 0.00 in - - ()
Sea Level Pressure  
Sea Level Pressure 30.51 in    
Wind  
Wind Speed 8 mph (West)    
Max Wind Speed 21 mph    
Max Gust Speed 24 mph    
Visibility 10 miles    
Events Snow    
Averages and records for this station are not official NWS values.
T = Trace of Precipitation, MM = Missing Value Source: NWS Daily Summary

Daily Weather History Graph

Daily Weather History Graph

Search for Another Location

Airport or City:

Trip Planner

Search our weather history database for the weather conditions in past years. The results will help you decide how hot, cold, wet, or windy it might be!

Date:

Astronomy

Nov. 22, 2013 Rise Set
Actual Time 7:17 AM CST 4:38 PM CST
Civil Twilight 6:45 AM CST 5:10 PM CST
Nautical Twilight 6:09 AM CST 5:46 PM CST
Astronomical Twilight 5:35 AM CST 6:20 PM CST
Moon 9:14 PM CST (11/22) 10:58 AM CST (11/22)
Length of Visible Light 10h 24m
Length of Day
9h 20m
Waning Gibbous, 78% of the Moon is Illuminated
Nov 22
Waning Gibbous
Nov 25
Last Quarter
Dec 2
New
Dec 9
First Quarter
Dec 17
Full

Hourly Weather History & Observations

Time (CST) Temp. Windchill Dew Point Humidity Pressure Visibility Wind Dir Wind Speed Gust Speed Precip Events Conditions
12:12 AM 24.8 °F 16.1 °F 21.0 °F 86% 30.48 in 7.0 mi NNW 8.1 mph - N/A   Overcast
12:32 AM 25.5 °F 14.9 °F 18.5 °F 75% 30.48 in 10.0 mi North 11.5 mph 17.3 mph N/A   Overcast
12:52 AM 25.5 °F 15.5 °F 17.8 °F 72% 30.48 in 10.0 mi NNW 10.4 mph - N/A   Overcast
1:12 AM 25.3 °F 14.1 °F 18.0 °F 74% 30.48 in 10.0 mi NNW 12.7 mph - N/A   Overcast
1:32 AM 25.2 °F 13.9 °F 16.7 °F 70% 30.49 in 10.0 mi NNW 12.7 mph - N/A   Overcast
1:52 AM 24.8 °F 16.9 °F 16.9 °F 72% 30.50 in 10.0 mi NW 6.9 mph - N/A   Overcast
2:12 AM 24.6 °F 15.8 °F 16.9 °F 72% 30.50 in 10.0 mi NNW 8.1 mph - N/A   Scattered Clouds
2:32 AM 23.9 °F 16.8 °F 16.7 °F 74% 30.50 in 10.0 mi NW 5.8 mph - N/A   Scattered Clouds
2:52 AM 23.7 °F 14.7 °F 16.7 °F 75% 30.51 in 10.0 mi NNW 8.1 mph - N/A   Scattered Clouds
3:12 AM 23.5 °F 15.4 °F 16.3 °F 74% 30.50 in 10.0 mi NNW 6.9 mph - N/A   Scattered Clouds
3:32 AM 23.0 °F 14.7 °F 15.6 °F 73% 30.51 in 10.0 mi NW 6.9 mph - N/A   Clear
3:52 AM 21.6 °F 13.0 °F 14.9 °F 76% 30.51 in 10.0 mi WNW 6.9 mph - N/A   Clear
4:12 AM 20.5 °F 12.8 °F 14.0 °F 76% 30.51 in 10.0 mi WNW 5.8 mph - N/A   Clear
4:32 AM 18.5 °F 10.4 °F 13.1 °F 79% 30.50 in 10.0 mi NW 5.8 mph - N/A   Clear
4:52 AM 18.3 °F 11.5 °F 13.1 °F 80% 30.51 in 10.0 mi West 4.6 mph - N/A   Clear
5:12 AM 17.8 °F 10.9 °F 12.9 °F 81% 30.53 in 10.0 mi West 4.6 mph - N/A   Clear
5:32 AM 16.9 °F 8.5 °F 12.0 °F 81% 30.52 in 10.0 mi WNW 5.8 mph - N/A   Clear
5:52 AM 16.2 °F 9.0 °F 11.5 °F 82% 30.53 in 10.0 mi West 4.6 mph - N/A   Clear
6:12 AM 15.3 °F 6.6 °F 10.8 °F 82% 30.54 in 10.0 mi WNW 5.8 mph - N/A   Clear
6:32 AM 16.2 °F - 12.0 °F 84% 30.54 in 10.0 mi Calm Calm - N/A   Clear
6:52 AM 12.2 °F 4.3 °F 8.8 °F 86% 30.55 in 10.0 mi West 4.6 mph - N/A   Clear
7:12 AM 11.8 °F 5.7 °F 8.4 °F 86% 30.55 in 10.0 mi West 3.5 mph - N/A   Clear
7:32 AM 12.2 °F - 8.8 °F 86% 30.54 in 10.0 mi Calm Calm - N/A   Clear
7:52 AM 13.1 °F - 9.7 °F 86% 30.54 in 10.0 mi Calm Calm - N/A   Clear
8:12 AM 13.8 °F 8.0 °F 10.0 °F 85% 30.54 in 10.0 mi SW 3.5 mph - N/A   Clear
8:32 AM 15.6 °F 7.0 °F 11.5 °F 84% 30.55 in 10.0 mi West 5.8 mph - N/A   Clear
8:52 AM 17.4 °F 7.1 °F 12.7 °F 82% 30.56 in 10.0 mi WNW 8.1 mph - N/A   Clear
9:12 AM 18.1 °F 6.3 °F 12.7 °F 79% 30.57 in 10.0 mi WNW 10.4 mph - N/A   Clear
9:32 AM 18.9 °F 9.8 °F 13.1 °F 78% 30.58 in 10.0 mi West 6.9 mph - N/A   Clear
9:52 AM 19.4 °F 12.8 °F 12.9 °F 76% 30.57 in 10.0 mi West 4.6 mph - N/A   Clear
10:12 AM 20.8 °F 16.0 °F 13.5 °F 73% 30.56 in 10.0 mi SSW 3.5 mph - N/A   Clear
10:32 AM 21.4 °F 15.1 °F 13.8 °F 73% 30.56 in 10.0 mi SW 4.6 mph - N/A   Clear
10:52 AM 22.5 °F 14.1 °F 14.2 °F 71% 30.55 in 10.0 mi WSW 6.9 mph - N/A   Clear
11:12 AM 23.0 °F 14.7 °F 13.3 °F 66% 30.55 in 10.0 mi WSW 6.9 mph - N/A   Clear
11:32 AM 24.3 °F 17.3 °F 13.1 °F 63% 30.54 in 10.0 mi WSW 5.8 mph - N/A   Clear
11:52 AM 25.3 °F 16.7 °F 13.5 °F 61% 30.53 in 10.0 mi SW 8.1 mph - N/A   Clear
12:12 PM 26.6 °F 17.5 °F 11.8 °F 54% 30.52 in 10.0 mi SW 9.2 mph - N/A   Clear
12:32 PM 27.5 °F 18.0 °F 10.9 °F 50% 30.52 in 10.0 mi WSW 10.4 mph - N/A   Clear
12:52 PM 28.2 °F 18.9 °F 10.2 °F 47% 30.50 in 10.0 mi SW 10.4 mph - N/A   Clear
1:12 PM 29.1 °F 22.1 °F 10.4 °F 46% 30.49 in 10.0 mi WSW 6.9 mph - N/A   Clear
1:32 PM 30.0 °F 23.2 °F 10.6 °F 44% 30.49 in 10.0 mi WSW 6.9 mph - N/A   Clear
1:52 PM 30.6 °F 21.8 °F 9.3 °F 41% 30.47 in 10.0 mi SW 10.4 mph - N/A   Clear
2:12 PM 31.1 °F 22.4 °F 12.0 °F 45% 30.47 in 10.0 mi SW 10.4 mph - N/A   Clear
2:32 PM 30.9 °F 20.7 °F 13.1 °F 48% 30.45 in 10.0 mi SSW 13.8 mph - N/A   Clear
2:52 PM 30.2 °F 20.8 °F 14.4 °F 52% 30.45 in 10.0 mi SSW 11.5 mph - N/A   Clear
3:12 PM 30.0 °F 21.7 °F 15.4 °F 55% 30.45 in 10.0 mi SW 9.2 mph - N/A   Clear
3:32 PM 30.0 °F 22.4 °F 12.9 °F 49% 30.46 in 10.0 mi WSW 8.1 mph - N/A   Clear
3:52 PM 29.3 °F 21.5 °F 13.3 °F 51% 30.46 in 10.0 mi SW 8.1 mph - N/A   Clear
4:12 PM 28.6 °F 23.5 °F 13.5 °F 53% 30.46 in 10.0 mi WSW 4.6 mph - N/A   Clear
4:32 PM 26.4 °F 18.9 °F 14.9 °F 62% 30.44 in 10.0 mi SSW 6.9 mph - N/A   Clear
4:52 PM 23.5 °F 16.4 °F 14.4 °F 68% 30.44 in 10.0 mi SSW 5.8 mph - N/A   Clear
5:12 PM 23.5 °F 17.6 °F 14.5 °F 69% 30.43 in 10.0 mi South 4.6 mph - N/A   Clear
5:32 PM 23.5 °F 19.1 °F 14.9 °F 70% 30.43 in 10.0 mi SSW 3.5 mph - N/A   Clear
5:52 PM 22.5 °F 17.8 °F 14.7 °F 72% 30.43 in 10.0 mi SSW 3.5 mph - N/A   Clear
6:12 PM 22.3 °F 16.1 °F 14.4 °F 72% 30.43 in 10.0 mi NW 4.6 mph - N/A   Clear
6:32 PM 25.9 °F 16.0 °F 14.4 °F 62% 30.44 in 10.0 mi West 10.4 mph - N/A   Clear
6:52 PM 26.4 °F 16.6 °F 13.8 °F 59% 30.45 in 10.0 mi West 10.4 mph - N/A   Clear
7:12 PM 25.5 °F 15.5 °F 13.1 °F 59% 30.45 in 10.0 mi WNW 10.4 mph 20.7 mph N/A   Clear
7:32 PM 26.1 °F 14.5 °F 13.3 °F 59% 30.47 in 10.0 mi NW 13.8 mph - N/A   Clear
7:52 PM 25.5 °F 15.5 °F 14.2 °F 62% 30.48 in 10.0 mi NW 10.4 mph - N/A   Scattered Clouds
8:12 PM 25.9 °F 13.8 °F 17.8 °F 71% 30.49 in 7.0 mi NNW 15.0 mph 20.7 mph N/A Snow Light Snow
8:32 PM 25.2 °F 15.1 °F 19.0 °F 78% 30.50 in 5.0 mi NW 10.4 mph - N/A Snow Light Snow
8:52 PM 25.3 °F 12.6 °F 17.2 °F 71% 30.50 in 10.0 mi NW 16.1 mph - N/A   Overcast
9:12 PM 23.7 °F 11.5 °F 13.1 °F 64% 30.52 in 10.0 mi NW 13.8 mph - N/A   Overcast
9:32 PM 22.3 °F 10.2 °F 12.0 °F 65% 30.52 in 10.0 mi NW 12.7 mph - N/A   Overcast
9:52 PM 21.0 °F 8.1 °F 9.9 °F 62% 30.53 in 10.0 mi NW 13.8 mph - N/A   Scattered Clouds
10:12 PM 20.3 °F 7.7 °F 10.4 °F 66% 30.53 in 10.0 mi NW 12.7 mph - N/A   Mostly Cloudy
10:32 PM 19.4 °F 6.6 °F 10.9 °F 70% 30.54 in 10.0 mi NW 12.7 mph - N/A   Scattered Clouds
10:52 PM 19.6 °F 3.5 °F 10.8 °F 69% 30.55 in 10.0 mi NNW 20.7 mph 24.2 mph N/A   Scattered Clouds
11:12 PM 17.8 °F 1.5 °F 8.6 °F 67% 30.55 in 10.0 mi NNW 19.6 mph - N/A   Clear
11:32 PM 16.5 °F 1.8 °F 6.3 °F 64% 30.57 in 10.0 mi NNW 15.0 mph - N/A   Clear
11:52 PM 15.3 °F 0.8 °F 6.3 °F 68% 30.57 in 10.0 mi NNW 13.8 mph 19.6 mph N/A   Clear